{"data":{"norad_id":59131,"epoch":"2026-05-24T22:34:31.999296Z","epoch_age_seconds":90884,"freshness":"FRESH","line1":"1 59131U 24043AK  26144.94064814  .00004807  00000+0  16378-3 0  9991","line2":"2 59131  97.5612 282.6463 0009196 330.3110  29.7608 15.30846687123521","mean_motion":15.30846687,"eccentricity":0.0009196,"inclination_deg":97.5612,"raan_deg":282.6463,"arg_perigee_deg":330.311,"mean_anomaly_deg":29.7608,"bstar":0.00016378,"rev_number":12352,"period_min":94.065592082377,"perigee_km":466.98429082824,"apogee_km":479.58542591016,"semimajor_km":6851.4218583692,"source":"CELESTRAK","updated_at":"2026-05-25T13:38:01.196795Z"}}